Fort Knox, KY

4:20 AM EDT on June 28, 2017 (GMT -0400)
Godman Army Air Field

Weather History for KFTK - July, 2013

Change the Weather History Date:

Friday, July 5, 2013

  Actual Average Record
Temperature  
Mean Temperature 71 °F -  
Max Temperature 79 °F 83 °F 100 °F (2012)
Min Temperature 64 °F 64 °F 53 °F (2014)
Cooling Degree Days 6    
Growing Degree Days 21 (Base 50)    
Moisture  
Dew Point 68 °F    
Average Humidity 92    
Maximum Humidity 100    
Minimum Humidity 69    
Precipitation  
Precipitation 0.00 in - - ()
Sea Level Pressure  
Sea Level Pressure 30.10 in    
Wind  
Wind Speed 4 mph (ESE)    
Max Wind Speed 12 mph    
Max Gust Speed -    
Visibility 9 miles    
Events Rain    
Averages and records for this station are not official NWS values.
T = Trace of Precipitation, MM = Missing Value Source: NWS Daily Summary

Daily Weather History Graph

Daily Weather History Graph

Search for Another Location

Airport or City:

Trip Planner

Search our weather history database for the weather conditions in past years. The results will help you decide how hot, cold, wet, or windy it might be!

Date:

Astronomy

Jul. 05, 2013 Rise Set
Actual Time 6:27 AM EDT 9:09 PM EDT
Civil Twilight 5:56 AM EDT 9:40 PM EDT
Nautical Twilight 5:17 AM EDT 10:19 PM EDT
Astronomical Twilight 4:33 AM EDT 11:02 PM EDT
Moon 4:25 AM EDT (7/5) 7:04 PM EDT (7/5)
Length of Visible Light 15h 44m
Length of Day
14h 42m
Waning Crescent, 6% of the Moon is Illuminated
Jul 5
Waning Crescent
Jul 8
New
Jul 15
First Quarter
Jul 22
Full
Jul 29
Last Quarter

Hourly Weather History & Observations

Time (EDT) Temp. Dew Point Humidity Pressure Visibility Wind Dir Wind Speed Gust Speed Precip Events Conditions
12:58 AM 65.5 °F 64.6 °F 97% 30.11 in 10.0 mi ESE 2.3 mph - N/A   Overcast
1:27 AM 66.2 °F 64.4 °F 94% 30.10 in 10.0 mi ENE 2.3 mph - N/A Rain Light Rain
1:44 AM 66.2 °F 64.4 °F 94% 30.10 in 10.0 mi NE 3.5 mph - N/A   Scattered Clouds
1:58 AM 65.5 °F 65.1 °F 99% 30.09 in 10.0 mi ENE 5.8 mph - N/A   Mostly Cloudy
2:58 AM 65.1 °F 65.1 °F 100% 30.08 in 10.0 mi ENE 4.6 mph - N/A   Overcast
2:59 AM 64.4 °F 64.4 °F 100% 30.08 in 10.0 mi ENE 4.6 mph - N/A Rain Light Rain
3:20 AM 64.4 °F 64.4 °F 100% 30.08 in 10.0 mi East 5.8 mph - N/A   Overcast
3:25 AM 64.4 °F 64.4 °F 100% 30.08 in 10.0 mi ENE 4.6 mph - N/A   Overcast
3:35 AM 64.4 °F 64.4 °F 100% 30.07 in 10.0 mi East 4.6 mph - N/A   Mostly Cloudy
3:50 AM 64.4 °F 64.4 °F 100% 30.07 in 10.0 mi ENE 5.8 mph - N/A   Overcast
3:58 AM 65.1 °F 65.1 °F 100% 30.07 in 10.0 mi ENE 5.8 mph - N/A   Overcast
4:43 AM 66.2 °F 66.2 °F 100% 30.07 in 10.0 mi East 5.8 mph - N/A   Overcast
4:58 AM 65.3 °F 65.3 °F 100% 30.07 in 10.0 mi East 4.6 mph - N/A   Overcast
5:13 AM 66.2 °F 66.2 °F 100% 30.08 in 10.0 mi East 4.6 mph - N/A   Overcast
5:28 AM 66.2 °F 66.2 °F 100% 30.08 in 10.0 mi East 3.5 mph - N/A   Overcast
5:43 AM 66.2 °F 66.2 °F 100% 30.08 in 10.0 mi East 3.5 mph - N/A   Overcast
5:58 AM 65.5 °F 65.5 °F 100% 30.09 in 10.0 mi East 4.6 mph - N/A   Overcast
6:03 AM 66.2 °F 66.2 °F 100% 30.09 in 10.0 mi East 4.6 mph - N/A   Overcast
6:08 AM 66.2 °F 66.2 °F 100% 30.09 in 10.0 mi East 5.8 mph - N/A   Overcast
6:18 AM 66.2 °F 66.2 °F 100% 30.09 in 10.0 mi East 4.6 mph - N/A   Overcast
6:23 AM 66.2 °F 66.2 °F 100% 30.09 in 10.0 mi East 4.6 mph - N/A   Overcast
6:28 AM 66.2 °F 66.2 °F 100% 30.09 in 10.0 mi East 3.5 mph - N/A   Overcast
6:53 AM 66.2 °F 66.2 °F 100% 30.09 in 10.0 mi ENE 3.5 mph - N/A   Overcast
6:58 AM 65.7 °F 65.7 °F 100% 30.09 in 10.0 mi ENE 3.5 mph - N/A   Overcast
7:46 AM 66.2 °F 66.2 °F 100% 30.09 in 2.0 mi East 4.6 mph - N/A   Light Drizzle
7:55 AM 66.2 °F 66.2 °F 100% 30.10 in 3.0 mi East 3.5 mph - 0.00 in   Light Drizzle
8:25 AM 66.2 °F 66.2 °F 100% 30.11 in 7.0 mi ENE 3.5 mph - N/A   Light Drizzle
8:51 AM 68.0 °F 68.0 °F 100% 30.11 in 7.0 mi ENE 4.6 mph - N/A   Light Drizzle
8:55 AM 67.5 °F 67.5 °F 100% 30.11 in 7.0 mi East 4.6 mph - 0.00 in   Light Drizzle
9:14 AM 68.0 °F 68.0 °F 100% 30.13 in 7.0 mi ESE 4.6 mph - N/A   Light Drizzle
9:57 AM 68.2 °F 68.2 °F 100% 30.12 in 7.0 mi East 4.6 mph - 0.00 in   Overcast
10:32 AM 69.8 °F 68.0 °F 94% 30.13 in 10.0 mi Variable 3.5 mph - N/A   Light Drizzle
10:55 AM 69.4 °F 68.5 °F 97% 30.13 in 10.0 mi SE 2.3 mph - 0.00 in   Overcast
11:10 AM 69.8 °F 69.8 °F 100% 30.12 in 7.0 mi ENE 3.5 mph - N/A Rain Light Rain
11:56 AM 70.7 °F 69.8 °F 97% 30.12 in 7.0 mi ESE 4.6 mph - 0.00 in   Light Drizzle
12:08 PM 71.6 °F 69.8 °F 94% 30.12 in 10.0 mi SSE 3.5 mph - N/A   Overcast
12:56 PM 73.9 °F 69.4 °F 86% 30.12 in 10.0 mi SSE 3.5 mph - 0.00 in   Overcast
1:54 PM 77.0 °F 69.8 °F 78% 30.12 in 10.0 mi South 4.6 mph - N/A   Mostly Cloudy
1:58 PM 76.5 °F 69.4 °F 79% 30.10 in 10.0 mi South 3.5 mph - N/A   Overcast
2:03 PM 77.0 °F 69.8 °F 78% 30.12 in 10.0 mi South 4.6 mph - N/A   Overcast
2:08 PM 77.0 °F 68.0 °F 74% 30.11 in 10.0 mi South 3.5 mph - N/A   Overcast
2:23 PM 77.0 °F 69.8 °F 78% 30.11 in 10.0 mi SW 3.5 mph - N/A   Mostly Cloudy
2:58 PM 77.9 °F 68.4 °F 72% 30.09 in 10.0 mi SSE 4.6 mph - N/A   Mostly Cloudy
3:03 PM 78.8 °F 68.0 °F 69% 30.09 in 10.0 mi SE 5.8 mph - N/A   Mostly Cloudy
3:18 PM 78.8 °F 69.8 °F 74% 30.10 in 10.0 mi SE 6.9 mph - N/A   Mostly Cloudy
3:28 PM 78.8 °F 69.8 °F 74% 30.10 in 10.0 mi SE 4.6 mph - N/A   Mostly Cloudy
3:58 PM 78.1 °F 70.2 °F 77% 30.09 in 10.0 mi SE 6.9 mph - N/A   Mostly Cloudy
4:23 PM 78.8 °F 71.6 °F 78% 30.10 in 10.0 mi ESE 6.9 mph - N/A   Overcast
4:33 PM 78.8 °F 69.8 °F 74% 30.10 in 10.0 mi SE 5.8 mph - N/A   Mostly Cloudy
4:58 PM 78.3 °F 70.0 °F 76% 30.09 in 10.0 mi SE 5.8 mph - N/A   Partly Cloudy
5:58 PM 77.9 °F 69.8 °F 76% 30.09 in 10.0 mi SSE 9.2 mph - N/A   Mostly Cloudy
6:08 PM 77.0 °F 69.8 °F 78% 30.09 in 10.0 mi SSE 8.1 mph - N/A   Overcast
6:58 PM 76.3 °F 70.0 °F 81% 30.09 in 10.0 mi South 5.8 mph - N/A   Partly Cloudy
7:58 PM 74.1 °F 69.8 °F 86% 30.10 in 10.0 mi SSE 8.1 mph - N/A   Scattered Clouds
8:58 PM 72.7 °F 70.3 °F 92% 30.08 in 10.0 mi SSE 5.8 mph - N/A   Partly Cloudy
9:28 PM 73.4 °F 71.6 °F 94% 30.09 in 10.0 mi SSE 9.2 mph - N/A   Mostly Cloudy
9:43 PM 71.6 °F 69.8 °F 94% 30.10 in 10.0 mi SSE 11.5 mph - N/A   Scattered Clouds
9:58 PM 71.8 °F 69.6 °F 93% 30.11 in 10.0 mi SSE 8.1 mph - N/A   Scattered Clouds
9:59 PM 71.6 °F 69.8 °F 94% 30.11 in 10.0 mi SSE 8.1 mph - N/A Rain Light Rain
10:58 PM 69.1 °F 67.3 °F 94% 30.13 in 10.0 mi SE 5.8 mph - N/A Rain Light Rain
11:58 PM 68.5 °F 67.6 °F 97% 30.13 in 10.0 mi SSE 4.6 mph - N/A Rain Light Rain